Tracking 31027 objects as of 19-Jul-2025
HD Live streaming from Space Station
objects crossing your sky now

USA 392

Track USA 392 now!
10-day predictions


NORAD ID: 60175
Int'l Code: 2024-121T
Perigee: 581.9 km
Apogee: 586.5 km
Inclination: 70.0 °
Period: 96.2 minutes
Semi major axis: 6955 km
RCS: Unknown
Launch date: June 29, 2024
Source: United States (US)
Launch site: AIR FORCE WESTERN TEST RANGE (AFWTR)
Your satellite tracking list
COSMOS 2251 DEB
Track 1 satellite(s)




NASA's NSSDC Master Catalog

Two Line Element Set (TLE):
1 60175U 24121T   25195.01226337 0.00000000  00000-0  00000-0 0    08
2 60175  69.9945 156.8675 0003350 252.2888 107.7472 14.96715098    05
Source of the keplerian elements: McCants